Wetbulb
61.22 61.66 62.86 62.99 62.77 62.91 63.13 63.02 62.44 61.84 61.31 60.78 60.06 59.35 58.49 59.32 59.41 52.86 49.56 57.35 60.44 64.01 61.13 53.69 52.95 52.44 49.35 47.86 48.74 44.44 37.77 34.13 37.91 42.93 45.13 48.27 47.09 48.24 48.67 50.24 49.39 51.42 54.16 54.95 60.34
60.68 60.78 61.33 62.48 62.64 62.62 62.48 62.57 62.13 61.68 61.20 59.97 58.73 58.48 58.25 58.47 53.82 49.57 58.35 61.98 63.49 63.67 52.44 50.86 48.97 50.34 44.78 45.39 46.16 40.77 36.27 37.71 41.19 44.48 44.12 46.75 47.21 48.04 48.68 48.22 48.15 51.05 55.46 58.79 60.68
60.22 60.40 60.61 61.08 62.32 62.47 62.37 62.21 61.75 61.46 60.55 58.92 58.01 57.97 57.89 57.34 47.53 44.39 62.22 61.22 63.13 62.59 57.23 52.72 50.47 48.33 42.72 43.25 43.01 40.86 37.83 40.56 44.79 47.90 47.91 46.60 45.55 46.21 47.13 45.22 49.22 51.44 54.69 57.66 57.88
59.57 59.99 60.32 60.33 60.94 62.26 62.25 61.88 61.10 60.47 59.93 59.01 58.22 57.68 57.39 54.21 35.14 54.99 62.02 61.88 62.32 60.34 56.31 50.84 47.39 43.15 40.71 40.36 44.15 39.72 43.39 45.37 47.80 48.67 47.50 45.70 46.49 44.75 45.37 46.83 50.64 53.12 55.55 55.27 56.76
58.82 59.19 59.56 60.07 60.30 60.91 61.65 61.24 60.59 60.02 59.65 59.23 58.34 57.11 53.93 45.48 43.56 55.93 59.95 58.94 57.08 58.27 52.23 47.76 45.46 43.85 39.53 40.15 42.80 40.91 42.51 47.33 47.91 47.94 46.82 47.93 44.87 44.12 46.10 46.82 48.33 52.33 53.09 53.07 54.19
58.05 58.45 58.88 59.30 59.99 60.34 60.81 60.89 60.44 60.01 59.74 59.46 58.64 57.44 49.74 37.11 52.68 54.12 53.61 55.76 57.25 54.47 50.50 49.09 45.97 45.99 41.93 40.99 41.29 43.49 43.96 44.82 47.19 46.18 45.92 45.04 44.33 45.04 45.60 46.37 47.56 48.92 49.32 49.24 49.45
57.00 57.85 58.18 58.70 59.57 59.83 59.83 60.27 60.24 59.83 59.69 59.48 58.79 54.23 46.77 42.52 52.40 53.04 53.44 53.70 56.09 55.76 50.29 49.69 52.01 45.58 43.09 42.39 46.38 43.97 39.73 41.21 43.28 44.56 43.94 43.82 41.60 42.93 44.93 46.68 44.65 45.81 46.53 48.02 49.08
56.28 56.58 57.48 57.99 58.67 59.27 59.22 59.42 59.76 59.60 59.70 59.68 58.68 50.92 40.37 51.19 51.14 51.71 52.66 51.56 55.15 57.18 55.46 54.53 54.03 47.99 44.81 44.93 43.41 39.48 37.50 33.31 39.28 43.76 43.31 42.56 37.17 40.09 42.10 40.64 44.30 44.42 44.33 45.67 46.41
55.99 56.10 56.60 57.56 57.78 58.34 58.72 58.75 58.82 59.57 59.58 59.19 51.70 46.10 41.58 53.94 48.00 51.37 50.73 49.67 54.61 55.46 55.34 56.97 52.03 45.59 44.80 38.66 34.76 35.54 28.72 31.48 35.97 42.42 40.74 38.62 35.08 39.24 42.35 42.18 41.16 40.39 43.18 44.65 43.87
55.62 55.70 55.97 56.89 57.46 57.64 58.02 58.48 58.49 58.14 56.42 55.27 53.09 46.14 46.56 44.36 48.52 50.02 50.48 50.80 52.64 51.49 50.47 49.06 45.09 41.94 40.50 35.21 27.05 30.58 29.24 31.41 31.21 36.88 38.78 36.19 36.94 39.18 42.00 41.54 41.46 41.75 40.87 42.47 43.88
54.62 55.41 55.06 56.78 57.24 57.73 56.90 54.13 49.80 48.38 50.80 46.55 46.81 43.40 45.80 48.63 50.42 47.48 49.74 50.22 51.61 47.16 40.09 43.07 38.42 35.63 40.16 38.11 35.95 34.42 31.85 30.07 33.12 37.78 37.68 36.74 37.28 39.45 41.94 41.04 40.88 41.27 41.99 42.40 42.60
53.68 55.22 55.36 55.07 57.39 57.15 55.16 49.69 49.89 50.05 44.32 48.05 47.60 46.72 48.39 49.38 44.36 46.32 49.60 45.93 44.99 39.05 41.84 38.82 34.29 39.37 41.77 39.87 37.64 35.94 33.17 32.63 36.39 40.13 38.63 36.06 36.23 39.22 40.79 40.63 41.97 42.50 41.29 42.54 41.38
53.74 53.57 55.36 54.81 54.51 55.22 51.54 50.98 52.49 50.97 42.46 44.28 46.40 46.07 46.11 47.67 43.19 43.38 47.71 45.21 40.35 37.71 37.93 35.04 35.31 40.21 39.55 37.69 36.78 34.21 32.57 32.45 32.75 36.92 36.44 33.96 32.06 33.47 37.28 40.03 41.82 42.23 42.51 42.07 42.17
53.17 53.89 54.51 54.52 50.05 52.40 49.72 53.51 52.05 50.62 35.08 36.61 42.77 44.53 46.16 45.24 39.87 46.85 48.52 44.44 39.78 36.57 37.96 36.58 39.29 37.86 36.48 35.15 36.75 31.60 37.25 36.36 35.61 32.36 27.20 32.79 22.42 32.91 35.86 37.21 39.19 40.41 40.14 40.46 40.39
52.07 52.95 53.81 54.10 48.51 48.87 50.93 52.74 52.37 48.06 23.88 36.54 42.05 48.80 46.13 41.39 41.66 42.45 47.33 42.94 37.13 37.29 37.21 33.33 36.75 36.37 35.04 36.32 38.26 34.55 38.52 36.64 35.11 31.74 28.15 27.97 26.16 28.45 33.22 34.49 37.17 37.82 38.99 39.08 38.90
51.47 52.58 52.91 51.84 49.79 51.30 53.31 52.17 47.60 31.97 23.29 33.26 41.78 41.23 40.68 40.75 41.14 42.42 42.90 43.76 42.28 38.22 35.77 35.26 39.83 39.10 38.12 39.53 39.68 40.00 37.16 35.46 33.18 30.71 21.66 28.78 25.83 23.68 30.48 34.57 34.69 37.35 38.01 38.14 37.54
51.23 51.68 51.29 51.17 46.47 50.66 51.84 47.20 32.11 26.55 33.15 33.06 35.99 40.17 38.97 38.12 39.53 39.09 39.44 38.20 34.32 31.38 30.38 33.92 34.61 38.02 40.04 37.11 38.21 37.25 32.44 20.01 19.92 23.76 19.70 27.68 25.79 26.93 33.48 36.69 37.42 38.30 37.47 36.89 36.09
50.28 50.70 49.86 49.87 51.01 50.50 49.58 38.53 26.92 30.87 27.72 36.31 37.18 38.53 34.92 38.05 37.45 38.94 37.23 35.37 36.86 32.62 29.67 29.69 27.09 36.70 39.86 37.25 34.90 34.41 31.89 22.34 15.47 18.17 20.97 28.11 24.86 29.55 34.54 37.26 39.35 39.85 37.55 36.49 35.14
49.68 45.79 45.54 49.48 50.92 49.49 43.62 30.59 30.55 31.23 32.62 35.33 36.77 33.55 33.66 36.71 36.63 37.33 36.05 35.47 36.33 35.68 27.97 25.44 26.98 35.59 37.78 38.95 39.11 34.73 32.89 33.41 26.23 17.71 20.08 23.93 27.75 33.37 35.56 35.64 36.51 36.23 36.43 35.28 35.30
41.96 43.05 41.69 47.30 50.89 45.28 31.75 32.85 33.30 33.85 36.34 37.07 31.02 34.53 30.52 33.96 33.73 34.85 34.55 37.53 35.37 38.03 36.92 32.83 26.80 33.29 35.78 38.94 38.18 36.38 37.83 29.96 25.21 14.41 13.12 21.29 23.42 26.37 30.15 33.01 34.25 34.70 35.35 36.15 36.22
40.01 34.68 41.98 49.06 48.76 39.59 28.88 31.97 34.26 34.82 37.96 32.84 30.71 32.96 32.99 33.35 33.75 33.35 33.44 34.60 38.59 37.36 38.26 34.16 31.20 33.30 36.00 34.89 34.07 34.85 33.68 33.20 30.75 25.10 19.33 16.81 22.81 30.57 32.61 33.57 34.60 34.85 36.25 36.17 36.04
39.10 29.84 42.45 47.53 34.05 31.83 31.48 32.14 36.97 35.32 35.62 33.31 33.04 32.13 32.61 34.74 33.25 32.84 32.13 34.19 40.08 39.87 34.89 35.53 32.88 29.79 32.94 34.13 36.39 36.24 33.82 33.20 26.58 24.83 23.93 23.90 24.09 34.16 33.80 34.74 36.65 36.08 36.98 36.66 37.10
32.47 33.56 42.61 44.48 28.33 31.00 31.93 33.91 36.50 36.00 32.76 32.28 31.29 33.20 34.64 33.86 31.37 34.63 34.53 38.04 39.09 38.67 36.53 36.99 30.94 24.39 30.00 34.04 34.35 34.73 35.20 35.28 32.30 29.88 26.33 22.35 23.63 33.86 34.18 35.02 36.29 36.93 37.12 38.61 38.50
34.46 28.64 33.64 37.51 36.41 32.71 31.90 31.77 32.14 38.73 34.42 33.61 32.46 35.12 33.71 33.03 32.09 32.87 33.56 34.37 38.17 38.46 41.94 40.47 33.28 26.78 23.57 26.71 31.69 32.76 34.55 34.47 34.58 29.17 28.12 26.69 26.46 31.07 32.58 34.01 35.33 36.44 37.25 36.96 36.90
33.95 29.55 30.83 29.40 30.49 33.55 34.86 33.60 32.24 31.54 35.66 35.08 32.57 32.92 31.90 30.91 29.71 28.83 32.09 33.87 36.91 40.93 38.23 37.48 31.09 30.21 30.01 30.75 30.11 30.46 32.59 34.36 32.02 32.45 28.59 29.22 29.56 33.59 36.09 36.61 37.20 38.71 37.37 35.86 35.86
30.80 30.40 32.45 32.27 33.15 33.63 35.19 33.04 32.39 31.97 31.48 30.19 31.20 33.29 32.90 31.57 30.94 28.96 32.11 32.27 33.37 35.56 36.53 37.87 30.57 32.20 26.80 30.55 28.20 27.77 30.15 31.10 31.94 32.70 31.94 31.66 31.45 36.45 38.43 38.18 37.38 37.18 35.64 34.07 33.41
36.02 38.21 36.12 33.93 33.05 33.12 32.39 34.08 33.72 33.99 32.86 34.55 35.21 34.04 31.49 34.58 35.97 37.33 36.32 36.13 36.60 35.57 35.72 34.73 29.51 27.70 24.24 26.49 27.46 22.55 24.14 28.48 29.79 32.07 33.76 29.88 34.85 37.28 35.51 35.95 35.08 34.20 33.58 33.39 33.87
MSLP
1014.32 1014.64 1014.87 1015.29 1015.60 1016.01 1016.30 1016.61 1016.99 1017.41 1017.61 1017.70 1017.79 1017.78 1017.71 1017.71 1017.41 1017.11 1017.11 1016.93 1016.80 1016.46 1016.20 1015.95 1015.65 1015.56 1015.17 1015.38 1015.53 1015.87 1016.77 1017.20 1016.71 1016.52 1015.53 1015.17 1015.33 1015.58 1015.59 1015.98 1016.41 1016.74 1017.06 1016.92 1017.06
1013.93 1014.37 1014.71 1014.99 1015.37 1015.76 1016.22 1016.56 1016.88 1017.22 1017.50 1017.72 1017.80 1017.84 1017.85 1017.78 1017.70 1017.43 1016.81 1016.72 1016.69 1016.55 1016.49 1016.55 1016.44 1016.20 1015.98 1015.91 1015.95 1016.29 1017.08 1016.89 1016.36 1016.15 1015.94 1015.58 1015.15 1015.33 1015.82 1016.23 1016.69 1016.91 1017.08 1017.14 1017.33
1013.58 1013.87 1014.36 1014.77 1015.14 1015.56 1015.98 1016.41 1016.76 1017.13 1017.35 1017.58 1017.76 1017.80 1017.90 1017.96 1018.12 1017.00 1016.70 1016.72 1016.64 1016.60 1016.83 1016.76 1016.78 1016.59 1016.47 1016.22 1016.24 1016.59 1016.81 1016.64 1016.36 1016.26 1016.15 1016.02 1015.81 1015.56 1015.77 1016.50 1016.21 1016.47 1017.05 1017.39 1017.74
1013.39 1013.52 1013.83 1014.38 1014.85 1015.30 1015.73 1016.17 1016.58 1017.02 1017.25 1017.47 1017.68 1017.72 1017.80 1017.96 1017.88 1016.79 1016.71 1016.65 1016.58 1016.76 1016.95 1016.86 1016.95 1016.81 1016.80 1016.58 1016.40 1016.74 1016.67 1016.61 1016.57 1016.53 1016.30 1016.33 1016.21 1016.11 1016.05 1015.96 1015.67 1016.00 1016.39 1017.32 1017.90
1013.02 1013.30 1013.54 1013.88 1014.41 1014.90 1015.47 1015.95 1016.41 1016.80 1017.16 1017.41 1017.63 1017.74 1017.83 1018.04 1017.31 1016.55 1016.58 1016.58 1016.63 1016.90 1017.02 1017.16 1017.07 1016.98 1016.94 1016.84 1016.76 1016.86 1016.88 1016.86 1016.86 1016.79 1016.81 1016.61 1016.89 1016.91 1016.47 1016.35 1016.12 1016.56 1016.92 1017.48 1017.95
1012.86 1013.16 1013.34 1013.59 1013.95 1014.52 1015.11 1015.66 1016.22 1016.67 1016.99 1017.33 1017.53 1017.70 1017.86 1017.83 1016.58 1016.57 1016.61 1016.65 1016.73 1016.90 1017.01 1017.18 1017.07 1016.84 1016.95 1017.05 1017.19 1017.24 1017.31 1017.38 1017.17 1017.21 1017.19 1017.07 1017.21 1017.09 1016.93 1016.84 1017.06 1017.17 1017.33 1017.67 1017.91
1012.85 1012.86 1013.13 1013.39 1013.69 1014.21 1014.73 1015.31 1016.00 1016.56 1016.87 1017.25 1017.50 1017.70 1017.81 1017.18 1016.61 1016.71 1016.76 1016.79 1016.73 1016.82 1016.95 1016.95 1016.76 1016.88 1017.13 1017.35 1017.47 1017.70 1018.10 1018.07 1017.82 1017.63 1017.58 1017.44 1017.59 1017.40 1017.49 1017.55 1017.86 1018.07 1017.97 1018.02 1018.05
1012.47 1012.92 1013.10 1013.20 1013.48 1013.93 1014.44 1015.15 1015.62 1016.31 1016.75 1017.35 1017.58 1017.93 1017.52 1016.74 1016.79 1016.84 1016.71 1016.71 1016.71 1016.74 1016.82 1016.62 1016.68 1017.01 1017.36 1017.78 1018.12 1018.62 1018.98 1019.14 1018.43 1018.16 1017.98 1017.95 1017.98 1017.69 1017.69 1018.17 1018.41 1018.53 1018.53 1018.48 1018.43
1011.89 1012.47 1012.79 1013.06 1013.29 1013.64 1014.28 1014.97 1015.55 1016.15 1016.65 1017.52 1017.69 1018.04 1017.51 1016.79 1016.98 1016.73 1016.78 1016.89 1016.85 1016.84 1016.75 1016.65 1016.83 1017.66 1018.02 1018.75 1019.57 1019.78 1019.77 1019.73 1019.25 1018.67 1018.66 1018.73 1018.73 1018.00 1017.99 1018.23 1018.71 1019.00 1019.04 1018.97 1019.15
1011.53 1011.91 1012.46 1012.86 1013.05 1013.38 1014.08 1014.88 1015.64 1016.48 1017.11 1017.47 1017.70 1018.36 1017.36 1016.83 1016.80 1016.80 1016.94 1017.05 1017.15 1017.17 1017.26 1017.35 1017.90 1018.45 1018.93 1019.51 1019.65 1019.91 1020.26 1019.97 1019.55 1019.11 1019.20 1019.33 1018.91 1018.55 1018.38 1018.65 1018.97 1019.04 1019.14 1019.47 1019.57
1011.07 1011.57 1012.07 1012.36 1012.98 1013.14 1014.13 1015.16 1016.02 1016.17 1016.48 1016.60 1016.63 1016.79 1016.65 1016.74 1016.85 1017.06 1017.08 1017.30 1017.49 1017.76 1018.20 1018.33 1018.75 1018.65 1018.94 1019.30 1019.47 1019.94 1020.11 1019.95 1019.44 1019.06 1019.53 1019.61 1019.37 1018.86 1018.39 1018.56 1018.61 1018.90 1019.13 1019.40 1019.91
1010.87 1011.22 1011.88 1012.05 1012.40 1012.95 1013.64 1013.71 1013.78 1013.90 1015.51 1016.41 1016.56 1016.59 1016.64 1016.62 1017.16 1017.28 1017.26 1017.79 1018.05 1018.51 1018.87 1019.36 1019.12 1019.04 1019.48 1019.66 1019.90 1020.24 1020.25 1020.16 1019.58 1019.46 1019.75 1019.79 1019.61 1018.78 1018.22 1017.82 1017.60 1017.80 1018.35 1019.03 1020.09
1010.61 1010.91 1011.26 1011.79 1012.33 1012.80 1012.96 1013.31 1013.33 1013.39 1015.36 1016.43 1016.57 1016.59 1016.75 1016.93 1017.12 1017.22 1017.52 1018.02 1018.53 1019.05 1019.35 1019.46 1019.04 1018.94 1019.40 1019.89 1020.17 1020.41 1020.50 1020.38 1020.32 1020.09 1020.20 1020.32 1019.68 1018.69 1017.40 1017.01 1016.91 1017.16 1017.53 1018.37 1019.36
1010.21 1010.51 1010.80 1011.80 1012.93 1011.85 1012.49 1013.46 1013.33 1013.79 1015.71 1016.36 1016.26 1015.97 1016.58 1016.90 1017.32 1017.07 1017.38 1017.95 1018.78 1019.19 1019.78 1019.69 1019.03 1019.04 1019.44 1019.87 1020.10 1020.49 1020.34 1020.53 1020.97 1021.20 1021.51 1021.23 1020.56 1019.04 1017.67 1017.02 1016.75 1016.84 1017.45 1018.14 1019.25
1009.85 1010.27 1010.71 1011.43 1011.63 1011.71 1012.08 1013.27 1013.68 1014.42 1015.50 1014.94 1015.39 1014.89 1015.81 1016.83 1016.91 1017.27 1017.50 1017.95 1018.64 1019.14 1019.72 1019.27 1019.16 1019.26 1019.42 1019.42 1019.81 1020.15 1020.33 1020.94 1021.61 1022.15 1022.37 1022.23 1021.92 1018.97 1018.19 1017.17 1016.95 1017.39 1018.13 1018.94 1019.75
1009.59 1010.06 1010.62 1010.98 1011.45 1011.76 1011.74 1013.06 1013.85 1015.58 1014.12 1014.70 1014.63 1014.99 1016.06 1016.67 1017.00 1017.50 1017.83 1018.04 1018.47 1019.27 1019.41 1019.42 1019.05 1019.06 1018.97 1019.06 1019.47 1020.00 1020.84 1021.77 1022.69 1023.28 1023.23 1022.24 1021.86 1019.38 1018.17 1017.09 1017.23 1017.93 1018.77 1019.64 1020.46
1009.44 1009.93 1010.29 1010.71 1010.24 1011.00 1011.95 1012.65 1013.34 1012.66 1014.44 1014.36 1014.00 1014.54 1015.23 1016.06 1017.14 1017.21 1017.77 1018.19 1018.48 1019.48 1019.59 1019.67 1019.42 1019.03 1018.82 1019.26 1019.75 1020.10 1021.32 1022.96 1024.05 1024.53 1023.54 1022.59 1022.25 1019.34 1017.60 1016.98 1017.20 1017.95 1019.10 1020.18 1021.02
1009.28 1009.97 1010.05 1010.24 1010.64 1011.09 1011.58 1011.60 1011.31 1011.85 1012.64 1012.80 1013.24 1014.54 1015.06 1015.75 1016.53 1017.07 1017.62 1017.86 1018.29 1018.74 1019.40 1019.60 1019.89 1019.00 1018.63 1018.51 1018.98 1020.11 1020.91 1022.25 1023.46 1024.52 1023.96 1023.03 1021.38 1018.42 1017.50 1017.34 1017.55 1018.07 1019.48 1020.56 1021.45
1009.16 1009.64 1009.91 1010.09 1010.45 1010.67 1010.35 1009.79 1009.67 1010.84 1011.76 1012.48 1013.67 1014.29 1014.80 1015.13 1015.56 1016.66 1017.04 1017.14 1017.66 1018.18 1018.61 1019.11 1019.09 1018.65 1018.48 1018.33 1018.48 1020.00 1020.83 1021.76 1023.18 1024.78 1024.35 1022.55 1020.62 1018.22 1017.59 1017.93 1018.57 1019.37 1020.07 1020.93 1021.53
1009.15 1009.63 1009.21 1009.26 1009.97 1010.67 1010.73 1009.31 1010.19 1010.25 1010.81 1011.33 1012.43 1013.37 1013.58 1014.50 1015.18 1015.86 1016.48 1016.07 1016.99 1017.37 1017.79 1018.10 1018.87 1018.83 1018.74 1018.47 1018.90 1019.08 1020.21 1021.72 1023.04 1024.31 1024.08 1022.34 1020.96 1018.83 1018.08 1018.50 1019.20 1019.94 1020.50 1020.96 1021.27
1009.18 1009.49 1008.17 1008.68 1009.77 1010.31 1010.09 1010.03 1009.98 1009.83 1010.04 1010.72 1011.93 1012.44 1012.87 1013.57 1014.69 1015.25 1015.38 1015.58 1016.04 1016.71 1017.40 1017.98 1018.24 1019.36 1018.95 1018.68 1018.62 1019.38 1019.79 1020.71 1021.67 1022.77 1022.88 1022.30 1020.50 1018.93 1018.53 1018.33 1018.98 1019.75 1020.31 1020.67 1021.12
1008.64 1009.18 1008.08 1008.56 1009.86 1009.22 1009.32 1010.03 1009.54 1009.74 1010.24 1010.57 1010.97 1011.52 1012.13 1013.25 1014.50 1015.05 1014.82 1014.88 1015.12 1015.79 1016.90 1017.66 1018.38 1019.04 1018.88 1018.97 1018.94 1018.67 1019.07 1019.82 1020.92 1022.29 1022.45 1021.94 1020.17 1018.93 1018.56 1018.39 1018.85 1019.60 1020.08 1020.47 1020.80
1008.06 1008.41 1008.27 1008.27 1008.73 1008.80 1009.15 1009.57 1009.61 1009.55 1009.99 1010.41 1010.56 1010.49 1011.49 1013.04 1014.46 1014.53 1014.76 1014.86 1015.03 1015.78 1016.18 1017.22 1018.24 1019.31 1019.68 1019.71 1019.20 1018.98 1019.18 1019.48 1020.04 1020.79 1021.14 1021.39 1020.08 1019.18 1018.72 1018.57 1018.72 1019.24 1019.67 1020.05 1020.43
1007.89 1008.51 1008.76 1008.14 1007.93 1008.87 1009.11 1009.17 1009.53 1009.28 1009.18 1009.54 1009.89 1010.21 1011.72 1013.17 1013.79 1014.31 1014.89 1015.19 1015.24 1015.76 1016.40 1016.73 1017.99 1018.31 1018.38 1018.21 1018.45 1019.00 1019.06 1019.34 1019.61 1020.10 1020.03 1019.91 1019.84 1019.53 1019.10 1018.90 1019.05 1019.26 1019.53 1020.18 1020.49
1007.14 1007.43 1007.08 1007.51 1007.30 1007.88 1008.59 1008.34 1008.74 1008.96 1008.63 1008.57 1009.81 1009.65 1010.49 1012.70 1013.93 1014.24 1014.69 1015.20 1015.80 1016.01 1016.79 1017.19 1018.29 1018.73 1018.73 1018.63 1018.84 1018.56 1018.73 1018.87 1018.88 1019.00 1019.08 1019.04 1019.18 1018.81 1018.51 1018.43 1018.65 1018.98 1019.49 1019.91 1020.12
1006.58 1006.81 1007.20 1006.63 1006.79 1007.23 1007.46 1007.21 1007.18 1008.14 1007.92 1007.70 1008.12 1009.34 1009.55 1010.34 1011.28 1012.82 1013.34 1014.29 1015.23 1016.46 1016.95 1017.52 1018.74 1019.42 1019.77 1019.63 1019.61 1019.24 1018.71 1018.52 1018.35 1018.60 1018.65 1018.83 1018.49 1018.14 1017.83 1017.97 1018.41 1018.59 1019.06 1019.41 1019.62
1006.03 1005.89 1005.84 1005.56 1006.20 1006.01 1006.01 1006.05 1006.01 1006.67 1007.55 1007.34 1007.94 1008.91 1009.80 1010.01 1010.81 1011.84 1012.78 1013.66 1014.32 1015.39 1016.95 1018.03 1019.14 1020.51 1021.23 1021.15 1020.64 1019.67 1018.74 1018.24 1017.95 1017.82 1018.04 1017.94 1017.20 1017.48 1017.78 1017.73 1017.96 1018.27 1018.55 1018.93 1019.27
Wind_Speed
18 17 16 14 13 12 12 11 9 8 7 6 3 2 5 8 10 4 4 1 4 9 10 7 6 7 4 4 4 3 5 1 4 6 5 6 5 4 1 7 3 2 6 4 7
17 17 17 16 15 14 12 12 10 9 7 6 4 2 2 7 3 5 2 2 5 7 5 6 6 8 4 4 3 5 4 8 3 2 2 3 5 10 6 5 2 3 3 5 8
16 17 17 18 16 15 14 13 11 10 9 7 5 2 2 2 0 6 1 2 5 4 2 2 3 2 2 2 1 2 4 3 1 1 2 3 2 2 8 3 7 12 9 8 5
16 16 17 17 18 16 15 14 12 10 9 8 6 2 2 1 6 1 3 4 5 1 0 1 1 1 1 2 1 2 1 1 2 4 2 4 1 2 1 4 7 10 11 7 8
14 15 15 16 17 18 16 14 13 11 10 8 6 4 3 2 7 2 3 5 2 3 2 3 3 4 4 2 1 2 2 2 2 5 3 1 3 2 2 4 2 9 8 9 8
11 13 14 14 16 18 17 16 14 12 10 8 7 5 3 4 1 2 2 3 2 2 2 3 4 2 3 1 3 1 1 2 3 2 4 3 1 4 1 2 6 7 9 9 9
12 13 13 14 16 17 18 17 15 13 10 8 6 2 2 9 1 1 1 1 2 2 3 3 1 2 2 3 1 3 2 4 2 1 1 1 5 5 2 6 0 4 5 6 8
17 12 15 14 15 16 17 16 15 13 11 9 7 1 5 1 1 2 1 2 3 3 3 2 0 3 3 2 6 4 5 2 3 2 1 4 7 4 4 3 7 6 5 5 3
18 14 14 13 14 15 16 15 14 13 12 9 4 3 5 1 2 3 0 2 0 1 2 2 4 3 4 6 4 4 3 4 7 5 2 4 5 5 2 6 5 5 8 6 4
16 14 12 13 14 15 17 17 13 12 7 4 3 2 3 5 3 3 1 1 1 3 3 4 4 3 3 3 7 6 4 4 5 3 4 4 10 7 6 4 7 7 5 8 6
11 17 17 12 17 18 16 9 7 7 6 5 8 3 4 3 2 1 2 3 2 4 4 1 4 9 11 5 4 5 3 4 3 4 4 7 8 9 9 6 8 8 7 7 5
10 15 18 11 19 19 12 8 9 4 6 2 2 1 2 2 3 2 4 5 4 4 4 4 6 4 4 3 4 1 3 4 1 1 5 3 10 10 9 8 10 11 10 9 7
14 11 17 18 14 13 17 16 8 8 5 2 3 3 3 3 3 7 8 4 3 5 5 7 4 8 6 4 5 2 3 2 0 3 2 5 8 6 6 6 7 7 8 7 13
15 15 16 15 7 9 14 15 7 2 3 5 7 6 4 5 3 5 6 5 2 8 6 3 3 6 5 4 6 4 6 4 3 3 3 2 7 7 4 7 5 5 7 8 10
10 16 14 21 3 12 12 8 7 5 8 11 10 5 9 8 8 3 3 4 7 6 7 8 5 4 3 6 7 6 5 6 2 1 2 2 1 9 4 7 7 1 4 5 7
11 13 15 9 9 9 16 13 6 7 8 7 9 11 12 5 3 5 4 2 4 4 2 5 1 6 9 4 6 6 6 7 4 2 3 8 8 6 4 4 1 3 5 6 8
12 11 13 3 8 23 10 11 11 9 5 11 10 15 19 10 6 6 13 9 8 8 7 2 2 1 3 7 2 4 7 2 3 2 7 1 2 8 7 5 5 8 9 7 7
13 12 8 7 5 14 14 11 13 7 7 3 11 18 15 14 8 7 14 13 8 3 6 10 5 8 6 7 8 5 7 6 8 5 4 3 7 7 2 5 5 8 8 7 6
13 2 3 6 9 8 11 18 11 11 9 13 18 18 9 13 8 11 14 15 11 10 7 6 5 2 2 4 9 6 6 5 6 2 3 4 7 10 2 6 7 7 7 6 6
3 3 5 11 10 10 2 14 8 7 10 17 10 11 13 19 10 16 16 15 8 10 4 6 3 1 1 4 4 6 8 2 3 1 4 4 5 5 2 3 4 5 6 6 5
4 2 4 12 5 8 10 7 4 6 10 9 8 9 9 15 10 15 15 3 17 11 8 4 4 0 5 6 10 5 5 3 5 5 4 1 6 5 4 2 8 7 7 6 6
5 4 2 11 9 2 7 7 4 12 3 4 6 7 12 21 12 15 10 6 14 14 10 4 4 5 11 2 3 4 6 5 5 4 3 3 6 3 5 4 6 6 5 5 7
3 4 3 8 9 4 3 7 9 16 7 7 5 4 5 13 7 5 7 7 9 12 15 8 3 5 1 4 4 4 4 6 5 4 6 6 6 4 4 6 5 8 4 4 5
3 5 2 3 4 11 7 8 7 13 6 5 7 8 10 13 4 10 6 2 8 7 8 7 2 5 5 3 6 8 9 6 11 5 5 6 3 5 4 5 4 5 5 5 7
3 5 4 9 6 14 13 11 14 8 3 7 4 8 12 9 4 5 5 4 5 12 5 6 7 4 2 2 2 5 10 15 14 11 9 7 9 8 7 7 8 6 3 5 7
6 4 2 4 13 21 19 19 25 8 9 7 12 14 9 17 12 13 11 5 7 2 5 3 4 4 3 2 1 4 8 9 10 7 7 3 11 6 7 4 6 7 6 6 7
3 1 2 9 13 17 11 21 28 15 1 6 17 16 7 12 8 7 6 6 12 12 5 7 6 4 3 4 4 8 8 7 5 5 11 15 16 6 9 9 7 8 7 7 8
Wind_Direction
218 216 205 201 197 195 185 181 180 178 185 176 185 292 333 340 326 344 272 301 315 331 332 322 1 342 10 12 26 114 63 186 211 159 220 178 138 142 109 118 95 121 155 230 142
216 218 213 202 194 190 191 183 180 179 180 192 197 226 326 351 349 280 242 304 319 345 357 15 351 347 6 1 15 83 114 208 211 238 300 234 168 158 132 141 76 81 61 106 117
223 212 213 209 195 190 186 183 178 181 181 189 199 214 345 4 332 243 187 307 328 357 303 330 311 2 338 349 358 138 180 198 259 9 250 230 222 212 122 209 202 170 163 147 145
234 214 207 207 201 190 187 182 179 183 183 184 189 187 32 43 223 252 237 303 311 17 98 242 203 112 225 210 328 148 292 216 21 354 24 151 359 198 181 226 195 178 151 147 164
222 227 209 201 200 194 186 180 179 179 182 182 180 167 128 146 250 229 277 307 294 125 173 196 159 149 181 207 35 151 228 52 78 44 55 44 38 315 273 358 69 135 139 159 171
240 244 213 204 196 194 185 178 175 176 177 176 171 147 118 207 204 175 310 335 77 161 185 180 196 189 159 195 154 95 328 18 346 47 33 61 316 30 336 2 69 138 164 171 179
259 239 231 208 198 194 187 178 171 174 167 169 169 157 128 227 313 272 260 209 194 151 168 203 208 119 128 128 117 73 81 359 297 279 93 219 310 232 151 29 252 209 196 189 208
224 230 246 214 203 194 185 178 166 165 155 160 145 115 228 284 0 292 176 288 252 227 178 155 89 116 118 99 28 79 55 109 286 174 299 101 253 268 349 172 243 262 238 218 234
213 202 238 228 203 192 185 174 160 155 152 146 109 142 248 16 179 224 144 204 195 67 19 120 82 107 52 100 46 358 208 207 319 207 140 150 246 259 64 35 306 239 248 235 211
209 189 213 247 209 192 188 160 163 139 117 49 46 159 239 206 174 161 134 302 154 122 55 66 62 105 94 131 203 184 184 219 214 239 199 189 247 260 265 226 258 294 271 241 213
246 199 206 228 225 195 180 131 148 184 173 186 170 193 133 126 86 99 142 121 87 74 155 140 123 191 200 139 85 139 154 200 220 231 168 234 258 254 262 270 263 250 243 241 164
223 218 197 192 219 203 172 192 177 152 138 135 157 56 103 177 110 165 118 142 143 158 132 59 226 169 145 149 107 12 170 244 297 70 165 292 274 261 257 236 224 231 222 198 161
219 218 210 188 236 212 195 194 151 112 127 215 158 167 171 142 180 187 145 129 121 136 176 169 218 162 147 155 168 220 199 220 266 354 33 349 279 273 276 254 247 236 219 175 176
221 207 199 196 236 198 202 188 164 48 130 207 180 233 145 138 258 169 171 137 153 181 142 231 253 148 141 179 141 211 206 162 141 62 235 25 286 302 285 288 283 255 195 169 143
230 218 211 180 122 217 181 162 127 70 216 173 164 143 147 171 142 205 158 76 162 177 134 238 173 142 145 180 157 212 140 157 168 115 357 279 292 270 293 279 245 153 138 124 128
221 220 206 225 190 241 152 144 90 169 213 170 138 162 150 172 130 105 129 61 152 139 102 204 24 156 186 145 161 134 87 56 54 84 301 207 176 265 221 234 38 117 127 128 122
217 213 200 197 207 198 174 159 187 205 136 175 168 169 173 165 139 157 175 178 164 163 190 150 226 270 147 94 61 109 105 30 347 244 232 16 197 260 266 272 233 177 158 142 126
214 207 214 217 170 159 209 181 200 141 182 140 146 155 181 147 183 161 167 184 225 143 139 176 221 181 187 177 165 176 153 155 199 198 264 87 234 250 238 7 349 110 118 125 135
200 209 206 213 168 160 208 198 182 175 152 150 136 157 174 178 140 170 196 196 199 180 152 138 254 127 163 145 139 187 198 160 106 37 49 226 285 300 120 52 64 95 120 144 173
143 203 225 193 164 166 290 201 170 158 137 141 144 178 171 175 159 180 179 197 195 181 193 218 108 289 122 101 60 146 150 103 25 167 249 277 280 247 316 151 101 134 146 191 201
117 174 244 153 200 180 212 200 155 176 147 137 156 140 168 171 171 185 187 208 185 181 155 163 105 97 124 213 172 147 178 174 128 151 182 245 265 226 301 268 168 176 190 199 223
147 194 203 142 208 193 189 154 210 164 194 130 106 98 162 165 178 192 192 188 190 172 167 182 132 180 198 356 300 203 195 153 148 185 232 163 270 332 347 68 127 164 177 212 226
174 188 110 160 208 196 89 142 209 163 170 172 136 149 161 157 160 183 162 218 168 172 169 168 181 120 84 317 339 223 181 177 126 107 193 150 260 344 114 95 124 138 177 233 258
121 165 261 250 182 188 170 149 183 185 146 130 118 108 106 157 24 168 153 110 181 160 148 113 125 168 198 211 144 189 194 187 195 203 174 204 179 258 229 153 155 176 207 245 245
130 217 188 199 214 179 198 160 158 162 219 155 62 166 145 144 116 142 142 117 54 139 115 121 191 198 272 208 194 176 178 199 209 207 204 174 200 226 234 219 191 224 253 228 251
145 177 208 165 152 187 187 184 168 173 158 196 158 169 160 155 175 175 140 148 171 144 124 165 129 157 223 320 89 224 217 207 219 228 257 239 255 217 242 282 248 240 251 269 281
165 231 235 154 180 179 174 175 178 148 79 160 151 143 131 174 131 130 94 106 155 147 131 129 124 110 243 353 23 278 209 196 188 186 221 230 242 205 226 234 229 248 247 261 271